Back to catalog

STARLINK-11733

AliveCommunicationsVLEO
NORAD 64072·PAYLOAD·🇺🇸 United States

Launched May 21, 2025 from Cape Canaveral Space Force Station

Loading…

Next Passes (next 24 hours)

TLE

FreshSource: CelesTrak SupGP

Epoch: Sep 14, 2026, 15:12 UTC

1 64072C 25107J   26257.63381944 -.00029554  00000+0 -22967-3 0  2576
2 64072  43.0007  39.2773 0001564 264.8044 135.7615 15.70840239    18

Track STARLINK-11733 in real time with AllMySat

Download on the App Store